Stations météo

Publicité
Ouessant, France (7100): Température de l'air & dewpoint: 10.02.2019 18:00:00 - 16.02.2019 18:00:00 (CET)Ouessant, France (7100): Vitesse du vent & gusts: 10.02.2019 18:00:00 - 16.02.2019 18:00:00 (CET)Ouessant, France (7100): Direction du vent: 10.02.2019 18:00:00 - 16.02.2019 18:00:00 (CET)Ouessant, France (7100): reduced air pressure: 10.02.2019 18:00:00 - 16.02.2019 18:00:00 (CET)Ouessant, France (7100): visibility: 10.02.2019 18:00:00 - 16.02.2019 18:00:00 (CET)Ouessant, France (7100): Quantités de précipitations: 10.02.2019 18:00:00 - 16.02.2019 18:00:00 (CET)
Date & Time tt [°C] td [°C] ff [km/h] ff [knt] fx [km/h] fx [knt] dd ppp [hPa] vv [km] rr [mm]
16.02.2019 18:00:00 9,3 9,3 33 18 66 35 SSE 1019,1 - 0,0
16.02.2019 17:00:00 10,4 10,4 33 18 71 38 SSE 1019,4 - 0,0
16.02.2019 16:00:00 10,8 10,8 25 13 48 26 SSE 1020,4 0,1 0,0
16.02.2019 15:00:00 11,1 11,1 26 14 48 26 S 1021,1 - 0,0
16.02.2019 14:00:00 11,1 11,1 29 15 46 25 S 1022,0 - 0,0
16.02.2019 13:00:00 10,9 10,9 31 17 50 27 S 1022,6 0,1 0,0
16.02.2019 12:00:00 11,3 11,3 36 20 51 28 S 1022,7 - 0,0
16.02.2019 11:00:00 11,2 11,2 32 18 48 26 S 1022,8 - 0,0
16.02.2019 10:00:00 11,2 11,2 32 17 48 26 S 1023,4 0,1 0,0
16.02.2019 09:00:00 11,0 11,0 28 15 43 23 S 1023,3 - 0,0
16.02.2019 08:00:00 11,0 11,0 29 16 41 22 S 1022,7 - 0,0
16.02.2019 07:00:00 11,0 11,0 28 15 37 20 S 1022,7 0,1 0,0
16.02.2019 06:00:00 11,2 11,2 24 13 35 19 S 1023,3 - 0,0
16.02.2019 05:00:00 11,2 11,2 25 14 35 19 S 1023,4 - 0,0
16.02.2019 04:00:00 11,2 11,2 24 13 35 19 S 1023,5 0,4 0,0
16.02.2019 03:00:00 11,1 11,1 23 12 32 17 S 1023,8 - 0,2
16.02.2019 02:00:00 10,7 10,5 22 12 38 20 S 1024,1 - 0,0
16.02.2019 01:00:00 10,5 10,3 25 14 41 22 S 1024,2 0,1 0,0
16.02.2019 00:00:00 10,1 9,9 27 14 49 26 S 1024,4 - 0,0
15.02.2019 23:00:00 9,7 9,6 36 19 54 29 S 1024,3 - 0,0
15.02.2019 22:00:00 9,7 9,6 38 20 50 27 S 1024,2 - 0,0
15.02.2019 21:00:00 9,9 9,6 29 16 43 23 S 1024,3 - 0,0
15.02.2019 20:00:00 10,1 9,8 29 16 45 24 S 1024,3 - 0,0
15.02.2019 19:00:00 10,1 9,8 24 13 41 22 S 1024,1 6 0,0
15.02.2019 18:00:00 10,4 9,9 23 12 48 26 SSE 1023,6 - 0,0
15.02.2019 17:00:00 10,7 9,9 24 13 46 25 SSE 1023,6 - 0,0
15.02.2019 16:00:00 11,1 9,8 26 14 46 25 S 1024,0 6 0,0
15.02.2019 15:00:00 12,0 10,1 25 14 50 27 SSE 1024,1 - 0,0
15.02.2019 14:00:00 12,0 10,1 26 14 50 27 SSE 1024,4 - 0,0
15.02.2019 13:00:00 11,8 9,5 32 17 53 29 S 1025,1 6 0,0
15.02.2019 12:00:00 11,2 9,1 26 14 49 26 SSE 1025,3 - 0,0
15.02.2019 11:00:00 10,9 9,3 28 15 49 26 SSE 1025,5 - 0,0
15.02.2019 10:00:00 9,9 8,7 26 14 48 26 SSE 1025,4 - 0,0
15.02.2019 09:00:00 9,2 8,3 26 14 47 25 SSE 1025,2 - 0,0
15.02.2019 08:00:00 9,4 8,6 24 13 45 24 SSE 1024,7 - 0,0
15.02.2019 07:00:00 9,1 8,0 23 13 42 23 SSE 1024,5 15 0,0
15.02.2019 06:00:00 9,2 8,1 23 12 44 24 SSE 1024,4 - 0,0
15.02.2019 05:00:00 9,4 8,2 23 13 48 26 SSE 1024,1 - 0,0
15.02.2019 04:00:00 9,6 8,2 27 14 47 25 SSE 1024,3 15 0,0
15.02.2019 03:00:00 9,6 8,4 22 12 48 26 SSE 1025,1 - 0,0
15.02.2019 02:00:00 9,6 8,4 24 13 59 32 SSE 1025,4 - 0,0
15.02.2019 01:00:00 9,7 8,3 29 16 59 32 SSE 1025,0 15 0,0
15.02.2019 00:00:00 9,2 8,0 35 19 57 31 SSE 1025,1 - 0,0
14.02.2019 23:00:00 8,9 7,3 33 18 56 30 SE 1025,6 - 0,0
14.02.2019 22:00:00 8,8 6,9 30 16 55 30 SSE 1026,0 15 0,0
14.02.2019 21:00:00 8,6 6,7 27 15 48 26 SSE 1026,1 - 0,0
14.02.2019 20:00:00 9,4 6,5 26 14 46 25 SSE 1026,4 - 0,0
14.02.2019 19:00:00 9,5 7,3 21 12 37 20 SE 1026,4 - 0,0
14.02.2019 18:00:00 10,3 7,0 21 11 36 19 SE 1026,2 - 0,0
14.02.2019 17:00:00 11,1 6,6 23 12 38 20 SE 1026,3 - 0,0
14.02.2019 16:00:00 10,9 6,0 21 12 36 20 SE 1026,5 11 0,0
14.02.2019 15:00:00 11,0 5,7 22 12 38 20 SE 1026,9 - 0,0
14.02.2019 14:00:00 10,5 5,0 21 11 39 21 SSE 1027,8 - 0,0
14.02.2019 13:00:00 10,8 6,0 24 13 39 21 SE 1028,8 11 0,0
14.02.2019 12:00:00 9,5 5,3 28 15 40 22 SE 1028,9 - 0,0
14.02.2019 11:00:00 9,8 6,7 23 12 43 23 SE 1029,1 - 0,0
14.02.2019 10:00:00 8,4 6,7 30 16 46 25 SE 1029,3 - 0,0
14.02.2019 09:00:00 7,6 6,8 27 15 49 27 SSE 1028,8 - 0,0
14.02.2019 08:00:00 7,6 6,7 25 14 47 26 SSE 1028,4 - 0,0
14.02.2019 07:00:00 7,4 6,2 23 13 49 27 SSE 1028,4 20 0,0
14.02.2019 06:00:00 7,5 6,1 23 12 47 26 SSE 1028,7 - 0,0
14.02.2019 05:00:00 7,7 6,2 29 16 44 24 SE 1028,9 - 0,0
14.02.2019 04:00:00 7,8 6,3 23 13 46 25 SSE 1029,2 20 0,0
14.02.2019 03:00:00 8,0 6,3 30 16 52 28 SE 1029,4 - 0,0
14.02.2019 02:00:00 8,4 6,4 28 15 51 28 SSE 1029,6 - 0,0
14.02.2019 01:00:00 8,6 5,9 23 13 50 27 SSE 1030,1 20 0,0
14.02.2019 00:00:00 8,7 5,6 28 15 54 29 SSE 1030,0 - 0,0
13.02.2019 23:00:00 8,6 5,5 26 14 50 27 SSE 1030,2 - 0,0
13.02.2019 22:00:00 8,5 4,9 26 14 50 27 SSE 1030,1 18 0,0
13.02.2019 21:00:00 8,5 5,4 26 14 - - SSE 1030,0 - 0,0
13.02.2019 20:00:00 8,8 5,9 29 16 51 28 SSE 1030,0 - 0,0
13.02.2019 19:00:00 8,8 5,7 27 15 56 30 SSE 1030,0 - 0,0
13.02.2019 18:00:00 9,3 6,4 36 19 59 32 SE 1029,8 - 0,0
13.02.2019 17:00:00 9,9 7,0 31 17 59 32 SSE 1030,1 - 0,0
13.02.2019 16:00:00 10,6 7,5 30 16 59 32 SSE 1030,5 15 0,0
13.02.2019 15:00:00 11,0 7,7 32 17 68 37 SSE 1030,5 - 0,0
13.02.2019 14:00:00 11,6 8,4 31 17 64 34 SSE 1030,7 - 0,0
13.02.2019 13:00:00 11,5 8,2 29 16 65 35 SSE 1031,4 11 0,0
13.02.2019 12:00:00 10,7 8,3 32 17 63 34 SSE 1031,0 - 0,0
13.02.2019 11:00:00 9,7 8,5 31 17 56 31 SSE 1030,8 - 0,0
13.02.2019 10:00:00 8,8 8,2 29 16 57 31 SSE 1031,0 6 0,0
13.02.2019 09:00:00 8,3 7,9 36 20 61 33 SSE 1031,0 - 0,0
13.02.2019 08:00:00 7,9 7,6 32 17 56 30 SSE 1031,0 - 0,0
13.02.2019 07:00:00 7,7 7,1 29 16 54 29 SSE 1031,5 - 0,0
13.02.2019 06:00:00 8,8 7,9 27 14 51 28 SSE 1031,5 - 0,0
13.02.2019 05:00:00 9,1 7,0 24 13 45 24 SSE 1031,7 - 0,0
13.02.2019 04:00:00 9,2 7,0 24 13 48 26 S 1032,1 20 0,0
13.02.2019 03:00:00 9,3 6,2 34 19 49 26 S 1032,4 - 0,0
13.02.2019 02:00:00 9,3 6,4 24 13 45 24 SSE 1032,5 - 0,0
13.02.2019 01:00:00 9,3 6,4 23 12 39 21 SSE 1032,9 20 0,0
13.02.2019 00:00:00 9,1 7,0 21 12 40 22 SSE 1033,5 - 0,0
12.02.2019 23:00:00 9,1 6,9 21 11 41 22 SSE 1033,6 - 0,0
12.02.2019 22:00:00 9,0 7,0 19 10 41 22 SSE 1034,0 20 0,0
12.02.2019 21:00:00 8,9 7,0 15 8 31 17 SSE 1033,9 - 0,0
12.02.2019 20:00:00 9,1 7,0 24 13 32 18 S 1033,9 - 0,0
12.02.2019 19:00:00 9,4 7,2 22 12 34 18 S 1033,8 - 0,0
12.02.2019 18:00:00 10,0 7,6 22 12 32 17 S 1033,7 - 0,0
12.02.2019 17:00:00 11,5 8,2 19 10 29 16 S 1033,8 - 0,0
12.02.2019 16:00:00 12,4 8,1 19 11 31 17 S 1033,7 20 0,0
12.02.2019 15:00:00 12,6 7,9 24 13 36 19 S 1033,7 - 0,0
12.02.2019 14:00:00 12,3 8,2 26 14 36 19 S 1033,8 - 0,0
12.02.2019 13:00:00 12,8 8,9 22 12 34 19 S 1034,3 20 0,0
12.02.2019 12:00:00 10,6 8,2 22 12 31 17 S 1034,6 - 0,0
12.02.2019 11:00:00 11,4 8,3 20 11 28 15 SSW 1034,4 - 0,0
12.02.2019 10:00:00 10,6 9,0 16 9 22 12 SSW 1034,3 20 0,0
12.02.2019 09:00:00 7,8 6,7 18 10 23 12 SW 1034,2 - 0,0
12.02.2019 08:00:00 7,8 6,7 18 10 22 12 SSW 1033,7 - 0,0
12.02.2019 07:00:00 7,7 6,5 19 10 23 13 SSW 1033,6 20 0,0
12.02.2019 06:00:00 8,1 6,9 19 10 23 13 SSW 1033,4 - 0,0
12.02.2019 05:00:00 8,2 6,8 19 10 24 13 S 1033,5 - 0,0
12.02.2019 04:00:00 7,9 6,4 19 10 23 12 SSW 1033,7 20 0,0
12.02.2019 03:00:00 7,4 5,7 18 10 21 11 SSW 1033,8 - 0,0
12.02.2019 02:00:00 7,3 5,1 16 9 18 10 SSW 1034,1 - 0,0
12.02.2019 01:00:00 7,6 5,4 14 7 15 8 S 1033,5 20 0,0
12.02.2019 00:00:00 7,7 4,8 10 6 12 6 SW 1033,7 - 0,0
11.02.2019 23:00:00 8,1 5,2 7 4 8 4 SW 1033,5 - 0,0
11.02.2019 22:00:00 8,0 5,8 6 3 9 5 WSW 1033,1 18 0,0
11.02.2019 21:00:00 8,0 6,0 9 5 11 6 WNW 1033,0 - 0,0
11.02.2019 20:00:00 7,6 5,2 9 5 13 7 NW 1032,6 - 0,0
11.02.2019 19:00:00 7,8 5,3 10 5 18 10 NW 1032,3 15 0,0
11.02.2019 18:00:00 9,6 5,9 15 8 23 13 NNW 1031,7 - 0,0
11.02.2019 17:00:00 10,7 6,3 18 10 28 15 NNW 1031,5 - 0,0
11.02.2019 16:00:00 11,0 6,5 24 13 31 17 NNW 1030,9 15 0,0
11.02.2019 15:00:00 11,6 6,7 20 11 31 17 NNW 1030,5 - 0,0
11.02.2019 14:00:00 11,0 6,7 22 12 35 19 NNW 1030,2 - 0,0
11.02.2019 13:00:00 10,3 5,9 27 15 44 24 NNW 1030,1 15 0,0
11.02.2019 12:00:00 10,9 6,2 32 17 47 25 NNW 1029,1 - 0,0
11.02.2019 11:00:00 9,9 5,7 34 18 55 30 NNW 1028,4 - 0,0
11.02.2019 10:00:00 9,6 5,0 40 22 57 31 NW 1027,5 12 0,0
11.02.2019 09:00:00 9,5 5,3 42 23 64 35 NW 1026,1 - 0,0
11.02.2019 08:00:00 9,2 5,0 45 24 70 38 NW 1024,7 - 0,0
11.02.2019 07:00:00 9,2 4,2 41 22 64 35 NW 1024,2 18 0,0
11.02.2019 06:00:00 9,0 4,2 47 25 66 36 NW 1023,5 - 0,0
11.02.2019 05:00:00 9,0 4,0 44 24 66 36 NW 1022,7 - 0,0
11.02.2019 04:00:00 8,9 3,9 44 24 69 37 NW 1022,0 20 0,0
11.02.2019 03:00:00 8,5 5,1 44 24 69 38 NW 1021,7 - 0,0
11.02.2019 02:00:00 8,7 3,7 49 26 79 42 NW 1021,0 - 0,0
11.02.2019 01:00:00 8,4 3,8 44 24 74 40 NW 1020,2 - 0,0
11.02.2019 00:00:00 8,0 4,4 38 20 81 44 NW 1019,7 - 0,0
10.02.2019 23:00:00 7,0 3,2 49 27 86 46 WNW 1019,0 - 0,0
10.02.2019 22:00:00 7,2 3,8 41 22 75 41 WNW 1017,9 20 0,0
10.02.2019 21:00:00 7,5 4,6 44 24 75 40 WNW 1017,2 - 0,0
10.02.2019 20:00:00 7,0 4,1 47 25 85 46 WNW 1016,2 - 0,2
10.02.2019 19:00:00 8,0 3,5 47 25 66 36 WNW 1015,2 18 0,0
10.02.2019 18:00:00 8,1 3,5 53 29 82 44 WNW 1014,0 - 0,0

tt = Température de l'air
td = dewpoint
ff = Vitesse du vent
fx = gusts
dd = Direction du vent
ppp = reduced air pressure
vv = visibility
rr = Quantités de précipitations

stations d'obs. à proximité